XML Sitemap

This is a XML Sitemap which is supposed to be processed by search engines which follow the XML Sitemap standard like Ask.com, Bing, Google and Yahoo.
It was generated using the WordPress content management system and the Google Sitemap Generator Plugin by Arne Brachhold.
You can find more information about XML sitemaps on sitemaps.org and Google's list of sitemap programs.

URLPriorityChange frequencyLast modified (GMT)
https://kobegurume.net/2018/09/01/hankyu-curry-utsuwa-2018-goodluckcurry/20%Monthly2018-08-31 23:41
https://kobegurume.net/2018/09/01/jutaka-super-market/20%Monthly2018-08-31 06:09
https://kobegurume.net/2018/08/31/post-15677-2/20%Monthly2018-08-31 08:34
https://kobegurume.net/2018/08/31/maruken-koshienguchi/20%Monthly2018-08-31 13:10
https://kobegurume.net/2018/08/31/hankyu-curry-utsuwa-2018-papio-karen/20%Monthly2018-08-31 02:14
https://kobegurume.net/2018/08/30/mamejin-softcream-nishinomoyahankyu/20%Monthly2018-08-31 04:08
https://kobegurume.net/2018/08/30/lunpaskobe-app-1808-flash-2/20%Monthly2018-08-30 10:12
https://kobegurume.net/2018/08/29/lunpashanshin13-close/20%Monthly2018-08-29 12:04
https://kobegurume.net/2018/08/29/hankyu-curry-utsuwa-2018-spice-hanten/20%Monthly2018-08-29 12:17
https://kobegurume.net/2018/08/29/hankyu-curry-utsuwa-2018-papio/20%Monthly2018-08-29 08:23
https://kobegurume.net/2018/08/29/shinpuku-moriguchi-nikunashi/20%Monthly2018-08-29 00:23
https://kobegurume.net/2018/08/28/hankyu-curry-utsuwa-2018/20%Monthly2018-08-28 05:00
https://kobegurume.net/2018/08/27/tempero-tachibana/20%Monthly2018-08-27 14:46
https://kobegurume.net/2018/08/27/yoshinoya-gusto-hanamaru-201809-flash/20%Monthly2018-08-27 05:14
https://kobegurume.net/2018/08/26/mugen-maratan-1808/20%Monthly2018-08-26 09:43
https://kobegurume.net/2018/08/25/yoshinoya-gusto-hanamaru-201809/20%Monthly2018-08-25 15:03
https://kobegurume.net/2018/08/24/daimaru-umeda-asahi-bar-kushi/20%Monthly2018-08-24 11:18
https://kobegurume.net/2018/08/23/nepali-rato-bhale/20%Monthly2018-08-25 16:25
https://kobegurume.net/2018/08/22/gen-en-saraudon-ringerhut/20%Monthly2018-08-22 11:17
https://kobegurume.net/2018/08/21/lunpaskobe-app-1808-dame/20%Monthly2018-08-21 11:40
https://kobegurume.net/2018/08/21/kawasaki-steak-center/20%Monthly2018-12-17 15:38
https://kobegurume.net/2018/08/20/bari-katsuo-kun/20%Monthly2018-08-20 11:55
https://kobegurume.net/2018/08/19/lunpashanshin13-heiten-flash-2/20%Monthly2018-08-31 13:49
https://kobegurume.net/2018/08/19/mei-hua-nasi-lemak/20%Monthly2018-08-20 15:12
https://kobegurume.net/2018/08/18/nakamoto-meguro-ladies-set-hokkyoku/20%Monthly2018-08-17 23:53
https://kobegurume.net/2018/08/17/lunpashanshin13-heiten-flash/20%Monthly2018-08-17 08:21
https://kobegurume.net/2018/08/17/lunpaskobe17-ikkyu-teishoku/20%Monthly2018-08-17 08:15
https://kobegurume.net/2018/08/16/lunpaskobe17-tenpoichiran/20%Monthly2018-08-18 15:59
https://kobegurume.net/2018/08/15/lunpaskobe-app-1808-flash/20%Monthly2018-08-16 13:11
https://kobegurume.net/2018/08/14/hanshin-umaka-tonkotsu/20%Monthly2018-08-14 01:58
https://kobegurume.net/2018/08/13/numadu-uogashi-zushi-mishima-minami/20%Monthly2018-08-12 23:54
https://kobegurume.net/2018/08/13/mamejin-schedule-2/20%Monthly2018-08-12 22:40
https://kobegurume.net/2018/08/12/hanshin-fujiya-gehin-na-sakanayadon-500yen/20%Monthly2018-08-12 11:24
https://kobegurume.net/2018/08/12/nishinomiya-hankyu-201708/20%Monthly2018-08-12 06:18
https://kobegurume.net/2018/08/12/leonidas-senchu-chocolatti-dark/20%Monthly2018-08-12 04:14
https://kobegurume.net/2018/08/11/gusto-ichibo-steak/20%Monthly2018-08-11 11:42
https://kobegurume.net/2018/08/11/lunpaskobe17-flash/20%Monthly2018-08-12 02:50
https://kobegurume.net/2018/08/11/curry-and-utsuwa-hankyu-2018-flash/20%Monthly2018-08-11 01:42
https://kobegurume.net/2018/08/10/nishikiya-hankyu-nishinomiya-201808-2/20%Monthly2018-08-29 08:27
https://kobegurume.net/2018/08/10/choinomi7-os-sannomiya2/20%Monthly2018-08-10 07:35
https://kobegurume.net/2018/08/09/hanshin-choboyaki2018008-bokkake/20%Monthly2018-08-09 04:52
https://kobegurume.net/2018/08/08/nishikiya-hankyu-nishinomiya-201808/20%Monthly2018-08-08 14:10
https://kobegurume.net/2018/08/08/mishima-croquette-hikobae/20%Monthly2018-08-08 11:07
https://kobegurume.net/2018/08/08/lipton-fruits-in-tea-osaka-flash/20%Monthly2018-08-08 14:34
https://kobegurume.net/2018/08/08/hanshin-umaka-reimen201808/20%Monthly2018-08-09 00:52
https://kobegurume.net/2018/08/08/kamukura-konnyaku/20%Monthly2018-08-07 14:58
https://kobegurume.net/2018/08/07/pho-hai-san-hoian-and-menu/20%Monthly2018-08-09 04:47
https://kobegurume.net/2018/08/06/goku-utsunomiya-nishinomiya/20%Monthly2018-08-06 05:09
https://kobegurume.net/2018/08/06/shinkaichi-hacchan-no-daidokoro/20%Monthly2018-08-06 05:00
https://kobegurume.net/2018/08/05/dashitako-yatsudoki-2/20%Monthly2018-08-06 16:15
https://kobegurume.net/2018/08/05/germaindog-doutor-cheeze/20%Monthly2018-08-04 15:05
https://kobegurume.net/2018/08/04/ikuta-shrine-summer-fest-2018/20%Monthly2018-08-04 07:07
https://kobegurume.net/2018/08/04/motomachi-yoichi-2018-3/20%Monthly2018-08-03 16:38
https://kobegurume.net/2018/08/03/motomachi-yoichi-2018-2/20%Monthly2018-08-03 16:39
https://kobegurume.net/2018/08/02/snackpark-drink-menu/20%Monthly2018-08-02 00:53
https://kobegurume.net/2018/08/02/cafe-de-crie-onion-and-chili/20%Monthly2018-08-01 14:51